Location: Unspecified
(0.0000°N, 0.0000°E)
Time: 15:04:40
(UTC+00:00)

Courier 1B - Pass Details

Date: 17 February 2026
Orbit: 962 x 1208 km, 28.3° (Epoch: 16 March)

Event Time Altitude Azimuth Distance (km) Brightness Sun altitude
Exits shadow 02:39:38 13° 89° (E) 2,770 10.2 -51.9°
Drops below altitude 10° 02:40:25 10° 92° (E) 2,998 10.5 -51.7°
Sets 02:43:23 0° 100° (E) 3,920 11.3 -51.0°
